Flag Weather past 2 weeks in Horsham, England, United Kingdom

Now
50 °F

Scattered clouds.


Feels Like: 49 °F
Forecast: 46 / 50 °F
Wind: 3 mph from South

Location: London / Gatwick Airport

Current Time: Nov 27, 2014 at 12:07:37 PM

Latest Report: Nov 27, 2014 at 11:20 AM


Visibility: 4 mi

Pressure: 29.62 "Hg

Humidity: 88%

Dew point: 46 °F

Location of HorshamLocation

Historic Weather in Horsham — Graph

°F

Horsham temperature yesterday

Maximum temperature yesterday: 50 °F (at 8:20 PM)
Minimum temperature yesterday: 45 °F (at 12:20 AM)
Average temperature yesterday: 47 °F

Past Weeks' High & Low Weather Summary

 TemperatureHumidityPressure
High57 °F (Nov 14, 12:50 PM)100% (Nov 13, 6:20 AM)30.33 "Hg (Nov 13, 6:20 AM)
Low28 °F (Nov 25, 1:50 AM)67% (Nov 14, 2:20 PM)29.42 "Hg (Nov 12, 10:20 AM)
Average47 °F94%29.84 "Hg
* Reported Nov 12 10:20 AM — Nov 27 10:50 AM, Horsham, Weather by CustomWeather, © 2014

Note: Actual official high and low records may vary slightly from our data, if they occured in-between our weather recording intervals... More about our weather records

Advertising

Horsham weather history for previous 24 hours

 ConditionsComfort  
Time TempWeatherWind HumidityBarometerVisibility
10:50 AM
Nov 27
50 °FPassing clouds.3 mph94%29.62 "Hg5 mi
10:20 AM48 °FScattered clouds.No wind100%29.62 "Hg4 mi
9:50 AM48 °FPartly sunny.2 mph100%29.62 "Hg4 mi
9:20 AM48 °FPartly sunny.2 mph100%29.65 "Hg4 mi
8:20 AM48 °FPartly sunny.5 mph100%29.65 "Hg4 mi
7:50 AM48 °FPartly sunny.6 mph100%29.65 "Hg4 mi
7:20 AM48 °FFog.6 mph100%29.62 "Hg3 mi
6:50 AM48 °FFog.5 mph100%29.62 "Hg1 mi
6:20 AM48 °FFog.5 mph100%29.62 "Hg1 mi
5:50 AM48 °FFog.3 mph100%29.62 "Hg1 mi
5:20 AM48 °FFog.5 mph100%29.62 "Hg1 mi
4:50 AM50 °FFog.6 mph100%29.65 "Hg1 mi
4:20 AM52 °FPartly cloudy.2 mph100%29.65 "Hg4 mi
3:50 AM52 °FPassing clouds.2 mph100%29.65 "Hg3 mi
3:20 AM52 °FPassing clouds.No wind100%29.65 "Hg3 mi
2:50 AM52 °FLight rain. Passing clouds.2 mph100%29.65 "Hg3 mi
2:20 AM52 °FDrizzle. Fog.3 mph100%29.68 "Hg3 mi
1:50 AM50 °FPartly cloudy.2 mph100%29.68 "Hg1 mi
1:20 AM50 °FRain. Passing clouds.3 mph100%29.68 "Hg1 mi
12:50 AM50 °FFog.2 mph100%29.68 "Hg1 mi
12:20 AM50 °FPassing clouds.2 mph100%29.71 "Hg1 mi
11:50 PM
Nov 26
50 °FPassing clouds.2 mph100%29.71 "Hg1 mi
11:20 PM50 °FPassing clouds.2 mph100%29.71 "Hg1 mi
10:50 PM50 °FPassing clouds.2 mph100%29.74 "Hg1 mi
10:20 PM50 °FPassing clouds.3 mph100%29.74 "Hg1 mi
9:50 PM50 °FPassing clouds.3 mph100%29.74 "Hg1 mi
9:20 PM50 °FPassing clouds.2 mph100%29.77 "Hg1 mi
8:50 PM50 °FPassing clouds.6 mph100%29.77 "Hg1 mi
8:20 PM50 °FPassing clouds.5 mph100%29.77 "Hg1 mi
7:50 PM48 °FPassing clouds.3 mph100%29.77 "Hg1 mi
7:20 PM48 °FFog.3 mph100%29.77 "Hg1 mi
6:50 PM48 °FFog.3 mph100%29.80 "Hg1 mi
6:20 PM48 °FFog.3 mph100%29.80 "Hg1 mi
5:50 PM48 °FFog.3 mph100%29.80 "Hg1 mi
5:20 PM48 °FFog.5 mph100%29.80 "Hg1 mi
4:50 PM48 °FFog.3 mph100%29.80 "Hg1 mi
4:20 PM48 °FFog.2 mph100%29.80 "Hg1 mi
3:50 PM48 °FFog.2 mph100%29.80 "Hg1 mi
3:20 PM48 °FFog.3 mph100%29.80 "Hg1 mi
2:50 PM48 °FFog.3 mph100%29.80 "Hg1 mi
2:20 PM48 °FFog.3 mph100%29.83 "Hg1 mi
1:50 PM48 °FFog.5 mph100%29.83 "Hg1 mi
1:20 PM48 °FFog.3 mph100%29.83 "Hg1 mi
12:50 PM48 °FFog.3 mph100%29.83 "Hg1 mi
Weather by CustomWeather, © 2014

See weather overviewHow to use our weather pages